Location: Unspecified
(0.0000°N, 0.0000°E)
Time: 07:05:02
(UTC+00:00)

A-11 Canister half - Visible Passes

Search period start: 03 October 2023 00:00
Search period end: 13 October 2023 00:00
Orbit: 1515 x 1684 km, 47.2° (Epoch: 02 October)

Date Brightness Start Highest point End Pass type
(mag) Time Alt. Az. Time Alt. Az. Time Alt. Az.
03 Oct 10.0 02:51:20 33° SSE 02:51:20 33° SSE 02:56:00 10° SSE visible
03 Oct 10.6 04:49:47 10° WSW 04:52:03 11° SW 04:54:21 10° SSW visible
04 Oct 10.5 02:30:02 23° SSE 02:30:02 23° SSE 02:33:05 10° SSE visible
04 Oct 10.5 04:28:15 12° SW 04:29:00 12° SW 04:32:34 10° SSW visible
05 Oct 10.9 02:08:39 16° SE 02:08:39 16° SE 02:10:10 10° SE visible
05 Oct 10.5 04:06:51 14° SW 04:06:51 14° SW 04:10:25 10° SSW visible
06 Oct 11.2 01:47:10 10° SE 01:47:10 10° SE 01:47:13 10° SE visible
06 Oct 10.6 03:45:23 14° SSW 03:45:23 14° SSW 03:48:05 10° S visible
07 Oct 10.7 03:23:50 14° SSW 03:23:50 14° SSW 03:25:39 10° S visible
08 Oct 10.9 03:02:13 12° S 03:02:13 12° S 03:03:08 10° S visible
09 Oct 11.0 02:40:33 10° S 02:40:33 10° S 02:40:34 10° S visible
